This is the latest recevied weather packets stored in our database for station/object EDDH. If no packets are shown the sender has not sent any weather packets the latest 10 day(s).
| Time | Temp. | Humidity | Pressure | Rain* | Wind** | Luminosity | Snow |
|---|---|---|---|---|---|---|---|
| 1787652602 | 20.56° C | 60% | 1019 hPa | 0 mm | - | - | - |
| 1787649002 | 20° C | 70% | 1019 hPa | 0 mm | - | - | - |
| 1787645404 | 17.78° C | 75% | 1019 hPa | 0 mm | - | - | - |
| 1787631002 | 10° C | 10% | 1019 hPa | 0 mm | - | - | - |
| 1787609402 | 11.67° C | 90% | 1020 hPa | 0 mm | - | - | - |
| 1787605801 | 12.78° C | 90% | 1020 hPa | 0 mm | - | - | - |
| 1787598601 | 15.56° C | 75% | 1020 hPa | 0 mm | - | - | - |
| 1787595002 | 18.89° C | 60% | 1020 hPa | 0 mm | - | - | - |
| 1787591402 | 20° C | 55% | 1021 hPa | 0 mm | - | - | - |
| 1787587801 | 20° C | 55% | 1021 hPa | 0 mm | - | - | - |
| 1787584463 | 20° C | 55% | 1022 hPa | 0 mm | - | - | - |
| 1787581081 | 18.89° C | 60% | 1022 hPa | 0 mm | - | - | - |
| 1787577256 | 20° C | 55% | 1023 hPa | 0 mm | - | - | - |
| 1787573402 | 18.89° C | 60% | 1023 hPa | 0 mm | - | - | - |
| 1787569802 | 17.78° C | 60% | 1023 hPa | 0 mm | - | - | - |
| 1787566202 | 16.67° C | 65% | 1023 hPa | 0 mm | - | - | - |
| 1787562602 | 15.56° C | 70% | 1023 hPa | 0 mm | - | - | - |
| 1787544602 | 10.56° C | 95% | 1022 hPa | 0 mm | - | - | - |
| 1787537402 | 10.56° C | 95% | 1022 hPa | 0 mm | - | - | - |
| 1787533801 | 12.78° C | 95% | 1022 hPa | 0 mm | - | - | - |
| 1787523002 | 12.78° C | 90% | 1021 hPa | 0 mm | - | - | - |
| 1787519401 | 13.89° C | 90% | 1021 hPa | 0 mm | - | - | - |
| 1787515802 | 13.89° C | 90% | 1021 hPa | 0 mm | - | - | - |
| 1787509933 | 15° C | 76% | 1021 hPa | - | - | - | - |
| 1787505002 | 16.67° C | 65% | 1021 hPa | 0 mm | - | - | - |
* Rain latest 24 hours (hover to see other rain measurements)
** Current wind speed in m/s (hover to see current wind gust speed)